Regional Weather Roundup
Issued by NWS Wakefield, VA

Home | Current Version | Previous Version | Graphics & Text | Print | Product List | Glossary On
Versions: 1 2 3 4 5 6 7 8 9 10 11 12 13 14 15 16 17 18 19 20 21 22 23 24 25 26 27 28 29 30 31 32 33 34 35 36 37 38 39 40 41 42 43 44 45 46 47 48 49 50
000
ASUS41 KAKQ 020215
RWRAKQ

REGIONAL WEATHER ROUNDUP
NATIONAL WEATHER SERVICE WAKEFIELD VA
1000 PM EDT WED JUL 01 2015

Note: "fair" indicates few or no clouds below 12,000 feet with no
significant weather and/or obstructions to visibility. * = Denotes
station may not report precipitation (e.g., rain,snow,etc.),
thunder or fog.

VAZ042-051-052>054-056-020300-
NORTHERN VIRGINIA

CITY           SKY/WX    TMP DP  RH WIND       PRES   REMARKS
WASH NATIONAL  PTCLDY    76  68  76 CALM      29.90R
DULLES         PTCLDY    75  62  64 NE7       29.90R
FORT BELVOIR   PTCLDY    73  68  87 E2        29.89R
QUANTICO       PTCLDY    76  72  87 VRB3      29.89R
FREDERICKSBRG* PTCLDY    78  70  78 S3        29.88R
STAFFORD*      CLEAR     72  69  89 CALM      29.93R
WARRENTON      MOCLDY    76  70  79 CALM      29.90R
CULPEPER*        N/A     71  69  93 CALM      29.90R
MANASSAS*      NOT AVBL
LEESBURG*      PTCLDY    72  64  78 NW6       29.92R
WINCHESTER     PTCLDY    68  61  77 CALM      29.92R
FRONT ROYAL*   FAIR      72  63  73 CALM      29.91R
LURAY*         FAIR      73  64  73 CALM      29.93R
$$

VAZ048-049-060>072-079>083-020300-
CENTRAL AND SOUTH CENTRAL VIRGINIA

CITY           SKY/WX    TMP DP  RH WIND       PRES   REMARKS
RICHMOND       MOCLDY    76  69  79 S6        29.91R
CHESTERFIELD*  NOT AVBL
PETERSBURG*    MOCLDY    76  75  95 CALM      29.92R
HANOVER        MOCLDY    76  69  79 S6        29.92R
TAPPAHANNOCK*  MOCLDY    76  66  71 S3        29.91R
QUINTON*       FAIR      74  71  89 CALM      29.90R
CHARLOTTSVILLE LGT RAIN  76  66  71 CALM      29.90R
GORDONSVILLE*  CLOUDY    72  70  94 CALM      29.90R
ORANGE*        PTCLDY    72  68  88 CALM      29.91R
LOUISA*        MOCLDY    75  68  78 CALM      29.90R
BUMPASS*       FAIR      74  69  83 SE3       29.90R
FARMVILLE*     CLOUDY    76  67  73 CALM      29.90R
CREWE*         FAIR      74  69  85 CALM      29.92R
FORT PICKETT*  FAIR      73  70  88 S12       29.93R
CHASE CITY*    FAIR      80  73  79 CALM      29.93R
CLARKSVILLE*   FAIR      77  70  78 S6        29.93R
SOUTH HILL*    CLOUDY    74  71  89 CALM      29.99R
LAWRENCEVILLE* NOT AVBL
EMPORIA*         N/A     75  70  83 CALM      29.94R
$$

VAZ088>098-020300-
SOUTHEAST VIRGINIA

CITY           SKY/WX    TMP DP  RH WIND       PRES   REMARKS
NORFOLK        CLEAR     80  66  62 S7        29.91R
VIRGINIA BEACH PTCLDY    81  67  62 S3        29.91R
NORFOLK NAVAL  MOCLDY    77  68  73 SW6       29.93R
WEST POINT*    PTCLDY    77  70  78 CALM      29.91R
SALUDA*        FAIR      76  69  80 S3        29.90R
NEWPORT NEWS   PTCLDY    78  70  76 SW8       29.91R
LANGLEY AFB    CLEAR     79  70  73 S6        29.90R
FORT EUSTIS    PTCLDY    79  72  80 S5        29.90R
WILLIAMSBURG*  PTCLDY    81  73  78 CALM      29.92R
HR EXEC AP*    FAIR      70  66  88 CALM      29.94R
FRANKLIN*      MOCLDY    76  72  86 S5        29.93R
WAKEFIELD      MOCLDY    76  71  85 S3        29.92R
$$

VAZ020-022-025-037-045-020300-
WEST CENTRAL AND SOUTHWEST VIRGINIA

CITY           SKY/WX    TMP DP  RH WIND       PRES   REMARKS
STAUNTON*      CLOUDY    72  64  75 CALM      29.95R
WAYNESBORO*    FAIR      71  65  82 S5        29.95R
HOT SPRINGS VA PTCLDY    66  58  76 W5        30.05R
LYNCHBURG      CLOUDY    73  68  84 CALM      29.93S
DANVILLE       CLOUDY    72  68  87 S3        29.94R
SOUTH BOSTON*  FAIR      78  70  74 MISG      29.93R
MARTINSVILLE   CLOUDY    77  65  68 CALM      29.97R
ROANOKE        CLOUDY    76  64  66 W7        29.95R
BLACKSBURG     CLOUDY    71  67  88 CALM      30.02R
DUBLIN*        CLOUDY    71  67  88 SW7       30.01R
MARION*        CLOUDY    67  64  91 W8        30.05R
HILLSVILLE*    CLOUDY    67  64  89 S3        30.03R
RICHLANDS*     FAIR      66  63  90 W6        30.03R
WISE*          CLOUDY    64  64 100 W8        30.03S
ABINGDON*      CLOUDY    67  67  99 W3        30.01F
$$

MDZ021>025-VAZ099-100-020300-
SOUTHERN MARYLAND AND THE DELMARVA PENINSULA

CITY           SKY/WX    TMP DP  RH WIND       PRES   REMARKS
PATUXENT RIVER PTCLDY    76  68  76 S5        29.88R
BAY BRIDGE APT   N/A     73  70  88 SW5       29.90R
LEONARDTOWN    CLEAR     73  66  78 CALM      29.90R
DOVER          MOCLDY    77  70  80 S3        29.86R
GEORGETOWN     CLOUDY    77  70  79 S6        29.89R
EASTON         HVY RAIN  73  73 100 W14G21    29.95
CAMBRIDGE      PTCLDY    77  68  73 CALM      29.89R
SALISBURY      PTCLDY    75  70  84 CALM      29.89R
OCEAN CITY     PTCLDY    78  69  73 SW7       29.89R
WALLOPS ISLAND PTCLDY    76  69  79 S5        29.90R
ACCOMACK*      CLEAR     75  72  88 SW6       29.90S
$$

NCZ012>017-030>032-020300-
NORTH CENTRAL AND EASTERN NORTH CAROLINA

CITY           SKY/WX    TMP DP  RH WIND       PRES   REMARKS
ROANOKE RAPIDS FAIR      73  70  88 S6        29.94R
RALEIGH        CLOUDY    80  71  74 SW12      29.95R
ELIZABETH CITY CLEAR     74  70  87 S5        29.93R
AHOSKIE*       MOCLDY    72  70  93 CALM      29.94R
EDENTON*         N/A     81  72  74 SW9       29.94R
CURRITUCK*     CLEAR     78  67  70 CALM      29.94R
KILL DEVIL HLS CLEAR     81  73  76 SW3       29.93R
MANTEO         CLEAR     80  74  83 SW12      29.95R
CAPE HATTERAS  CLEAR     78  74  87 SW16G23   29.96R
TARBORO*         N/A     78  70  76 S3        29.96R
GOLDSBORO      PTCLDY    77  72  83 S3        29.94S
WASHINGTON     MOCLDY    77  71  81 SW7       29.96R
GREENVILLE     PTCLDY    77  72  83 SW7       29.98R
NEW BERN       MOCLDY    77  72  84 SW3       29.98R
WILMINGTON     PTCLDY    79  74  84 SW7       29.98R
$$

VAZ048-020300-
ELSEWHERE

CITY           SKY/WX    TMP DP  RH WIND       PRES   REMARKS
HARRISBURG PA  PTCLDY    69  63  81 CALM      29.90R
BALTIMORE      PTCLDY    73  63  70 CALM      29.89R
ANNAPOLIS      PTCLDY    76  67  73 W5        29.89R
ANDREWS AFB    PTCLDY    71  69  91 CALM      29.89S
PHILADELPHIA   CLOUDY    81  58  45 W7        29.89R
HENDERSON NC   CLOUDY    77  68  73 S7        29.94S
GREENSBORO     CLOUDY    72  67  84 S7        29.95F
ROCKY MOUNT    PTCLDY    78  71  79 S9        29.95R
$$

VAZ100-020300-
MARINE

STATION/POSITION TIME  TEMP    WIND        PRES    WAVE   SWELL
                       AIR SEA DIR/SP/G            HT/PER HT/PER
                 (UTC) (F)     (DEG/KT/KT) (MB)    (FT/S) (FT/S)
BRANDYWINE LGT   0100   78 72  210/ 11/ 12 1011.5R
CAPE MAY NJ      0100   76 80  200/  5/  6 1011.1R
LEWES DE         0100   79 72  200/  3/  5 1011.3R
15NM E FENWICK I 0150   75 74              1012.1R   4/ 8
OCEAN-CITY-INLET 0100   75 71  200/  6/  9 1011.6R
WACHAPREAGUE VA  0100   80 81  230/  4/  5 1012.3R
THOMAS POINT MD  0100   77     210/  7     1011.8
GOOSES REEF MD   0200   78 78   10/ 12/ 12 1013.2R
COVE POINT MD    0100   80     240/  8/  9 1012.0R
SOLOMONS ISLAND  0100      79                N/A
BISHOPS HEAD MD  0100   82     220/ 11/ 14 1011.3R
PINEY POINT MD   0100          230/  9/ 10   N/A
CAMBRIDGE MD     0100   81 79  210/  4/  5 1011.4R
LEWISETTA VA     0100   80 83  220/  7/  8 1011.3R
RAPPAHANNOCK LGT 0100          220/ 13/ 15 1012.6R
STINGRAY PT      0200   81 80  220/ 10/ 12 1012.5R   1
YORK RVR RNG VA  0100   81     240/  8/  9 1011.8R
YORKTOWN VA      0100   80 80  210/  4/  6 1011.9R
JAMESTOWN VA     0200   79 83  200/  6/  8   N/A
DOMINION TERM VA 0100   81     200/  6/  6 1012.4R
KIPTOPEKE VA     0100      85  220/  8/  9   N/A
CHES BAY BRIDGE  0100   82 77  200/  8/  9 1012.0S
CAPE HENRY VA    0100   81     200/  4/  4 1010.9R
CHESAPEAKE LGHT  0100   81     240/ 10/ 10 1013.2R
WILLOUBY STN VA  0100   81     230/  9/ 10 1013.4R
CAPE HENRY BUOY  0128      78                N/A     3/ 8
1ST LANDING BUOY 0200      77              1012.5R   1/ 4
CAPE CHARLES BUO 0126      76                N/A     3/ 8   3/ 8
OFFSHORE WE BUOY 0111      78                N/A     4/ 8   3/ 8
64NM E OF VA BCH 0150   78 77  220/ 10/ 12 1013.1R   5/ 9   5/ 9
DUCK PIER NC     0100   82 64  220/  7/ 10 1012.1S
44100 DUCK FRF   0124      77                N/A     3/ 8
44056 DUCK FRF   0111      72                N/A     2/ 8
OREGON INLET NC  0100   80 84  210/ 14/ 17 1013.4R
HATTERAS NC      0100   78 82  220/  9/ 14 1014.0R
DIAMOND SHLS NC  0150   80 83  230/ 19/ 21 1014.2R   5/ 8   3/ 8
CAPE LOOKOUT NC  0200   79     240/ 12/ 18 1014.7R
$$



USA.gov is the U.S. government's official web portal to all federal, state and local government web resources and services.